• Join FlightAware (Why Join?)
  • Login
  • US Flag 
11:30PM EST


 

Airport Tracker/Info


-or-


 

Live Flight TrackerFlight Track Log ✈ SWA286 ✈ 08-Apr-2013 ✈ KISP - KBWI

Flight Track Log - Related Links

Times and Time Zones

All times are in EDT time to prevent confusion due to time zone crossing. See the SWA286 flight status page for this flight to view local times or setup timezone preferences in your user account.

Time Position Orientation Groundspeed Altitude Reporting Facility
EDT Latitude Longitude Course Direction KTS MPH feet Rate Location/Type
03:13PM 40.7833 -73.1167 172° South 139 160 1,500  Level New York TRACON
03:14PM 40.7228 -73.1056 172° South 164 189 4,000 962 Climbing Boston Center
03:15PM 40.7381 -73.0153 77° East 144 166 4,000 2,164 Level Boston Center
03:16PM 40.7386 -72.8919 90° East 215 247 8,400 3,934 Climbing Boston Center
03:17PM 40.6950 -72.7986 122° Southeast 286 329 12,000 3,800 Climbing Boston Center
03:18PM 40.6117 -72.8447 203° Southwest 218 251 16,000 3,966 Climbing Boston Center
03:19PM 40.5300 -72.9206 215° Southwest 271 312 19,800 3,864 Climbing Boston Center
03:20PM 40.4506 -73.0044 219° Southwest 325 374 23,600 2,523 Climbing Boston Center
03:23PM 40.2747 -73.1933 219° Southwest 365 420 28,000 1,354 Climbing Washington Center
03:24PM 40.1953 -73.2775 219° Southwest 365 420 28,000  Level Washington Center
03:25PM 40.1156 -73.3589 218° Southwest 365 420 28,000  Level Washington Center
03:26PM 40.0250 -73.4214 208° Southwest 365 420 28,000  Level Washington Center
03:27PM 39.9344 -73.4864 209° Southwest 370 426 28,000  Level Washington Center
03:28PM 39.8439 -73.5486 208° Southwest 370 426 28,000  Level Washington Center
03:29PM 39.7514 -73.6133 208° Southwest 370 426 28,000  Level Washington Center
03:30PM 39.6669 -73.6883 214° Southwest 370 426 28,000  Level Washington Center
03:31PM 39.5933 -73.7739 222° Southwest 370 426 28,000 -450 Level Washington Center
03:32PM 39.5175 -73.8644 223° Southwest 370 426 27,100 -1,450 Descending Washington Center
03:33PM 39.4439 -73.9522 223° Southwest 370 426 25,100 -1,550 Descending Washington Center
03:34PM 39.3700 -74.0372 222° Southwest 370 426 24,000 -550 Descending Washington Center
03:35PM 39.2981 -74.1219 222° Southwest 364 419 24,000  Level Washington Center
03:36PM 39.2242 -74.2039 221° Southwest 359 413 24,000 -100 Level Washington Center
03:37PM 39.1519 -74.2881 222° Southwest 359 413 23,800 -655 Descending Washington Center
03:38PM 39.0800 -74.3722 222° Southwest 359 413 22,700 -1,050 Descending Washington Center
03:39PM 39.0078 -74.4536 221° Southwest 354 407 21,700 -1,000 Descending Washington Center
03:40PM 38.9419 -74.5375 225° Southwest 354 407 20,700 -1,000 Descending Washington Center
03:41PM 38.9200 -74.6497 256° West 328 377 19,700 -1,000 Descending Washington Center
03:42PM 38.9000 -74.7594 257° West 328 377 18,700 -950 Descending Washington Center
03:43PM 38.8756 -74.8717 254° West 328 377 17,800 -950 Descending Washington Center
03:44PM 38.8575 -74.9706 257° West 309 356 16,800 -893 Descending Washington Center
03:45PM 38.8369 -75.0719 255° West 304 350 16,000 -400 Descending Washington Center
03:46PM 38.8208 -75.1628 257° West 298 343 16,000 -650 Level Washington Center
03:47PM 38.8064 -75.2614 259° West 298 343 14,700 -1,200 Descending Washington Center
03:48PM 38.8006 -75.3678 266° West 298 343 13,600 -1,059 Descending Washington Center
03:49PM 38.7944 -75.4692 266° West 292 336 12,600 -1,000 Descending Washington Center
03:50PM 38.7883 -75.5703 266° West 292 336 11,600 -793 Descending Washington Center
03:51PM 38.7819 -75.6636 265° West 292 336 11,000 -300 Descending Washington Center
03:52PM 38.7778 -75.7567 267° West 280 322 11,000  Level Washington Center
03:53PM 38.7714 -75.8525 265° West 275 316 11,000  Level Washington Center
03:54PM 38.7628 -75.9483 263° West 275 316 11,000  Level Washington Center
03:55PM 38.7542 -76.0417 263° West 275 316 11,000 -250 Level Washington Center
03:56PM 38.7808 -76.1322 291° West 268 308 10,500 -1,100 Descending Washington Center
03:57PM 38.8200 -76.2231 299° West 268 308 8,800 -1,650 Descending Washington Center
03:58PM 38.8236 -76.3164 273° West 268 308 7,200 -900 Descending Washington Center
03:59PM 38.8606 -76.3967 301° West 261 300 7,000 -621 Descending Washington Center
03:59PM 38.9000 -76.4833 300° West 271 312 6,000 -1,026 Descending Potomac TRACON
04:00PM 38.9500 -76.5500 314° West 268 308 5,000 -991 Descending Potomac TRACON
04:01PM 38.9833 -76.6333 297° West 271 312 4,100 -526 Descending Potomac TRACON
04:02PM 39.0167 -76.7167 297° West 265 305 4,000 -793 Descending Potomac TRACON
04:03PM 39.0667 -76.7833 314° West 279 321 2,500 -1,041 Descending Potomac TRACON
04:04PM 39.1167 -76.8333 322° Northwest 262 302 1,900 -250 Descending Potomac TRACON
04:05PM 39.1833 -76.8000 21° North 218 251 2,000 -261 Climbing Potomac TRACON
04:06PM 39.1833 -76.7500 90° East 154 177 1,400 -835 Descending Potomac TRACON
04:07PM 39.1833 -76.7000 90° East 119 137 400 -1,000 Descending Potomac TRACON
04:09PM 39.1667 -76.6667 104° East  Level FlightAware Approximate
04:16PM 39.1754 -76.6683 104° East  Level Estimated
04:17PM 39.1754 -76.6683 104° East  Level Estimated
04:18PM 39.1754 -76.6683 104° East  Level Estimated
04:19PM 39.1754 -76.6683 104° East  Level Estimated